N6ZHV-13 Weather Reports


time (UTC)temp
C
wind
direction
speed
KPH
gust
KPH
rain 1hr
cm
rain 24hr
cm
rain mn
cm
humidity
%
barometer
mb
20260507101949 13 54 0.0 0.0 0.00 0.00 0.00 87 1018.2
20260507101449 13 54 0.0 0.0 0.00 0.00 0.00 86 1018.2
20260507100949 13 101 0.0 0.0 0.00 0.00 0.00 87 1018.1
20260507100449 13 108 0.0 1.6 0.00 0.00 0.00 87 1018.1
20260507095949 13 37 0.0 0.0 0.00 0.00 0.00 87 1018.1
20260507095449 13 37 0.0 0.0 0.00 0.00 0.00 87 1018.1
20260507094949 13 37 0.0 3.2 0.00 0.00 0.00 87 1018.2
20260507094449 13 288 0.0 0.0 0.00 0.00 0.00 88 1018.1
20260507093949 13 288 0.0 0.0 0.00 0.00 0.00 87 1018.3
20260507093449 13 288 0.0 0.0 0.00 0.00 0.00 87 1018.3
20260507092949 13 288 0.0 0.0 0.00 0.00 0.00 87 1018.3
20260507092449 13 288 0.0 4.8 0.00 0.00 0.00 87 1018.2
20260507091949 13 80 4.8 4.8 0.00 0.00 0.00 86 1018.3
20260507091449 13 127 1.6 1.6 0.00 0.00 0.00 86 1018.3
20260507090949 13 30 0.0 0.0 0.00 0.00 0.00 86 1018.3
20260507090449 13 30 0.0 0.0 0.00 0.00 0.00 86 1018.3
20260507085949 13 43 0.0 1.6 0.00 0.00 0.00 86 1018.3
20260507085449 13 45 0.0 0.0 0.00 0.00 0.00 86 1018.3
20260507084949 13 45 0.0 0.0 0.00 0.00 0.00 86 1018.3
20260507084449 13 61 0.0 0.0 0.00 0.00 0.00 86 1018.3
20260507083949 13 52 0.0 1.6 0.00 0.00 0.00 86 1018.2
20260507083449 13 54 0.0 3.2 0.00 0.00 0.00 85 1018.2
20260507082949 13 78 0.0 0.0 0.00 0.00 0.00 86 1018.3
20260507082449 13 78 0.0 0.0 0.00 0.00 0.00 85 1018.3
20260507081949 13 78 0.0 1.6 0.00 0.00 0.00 85 1018.3
20260507081449 13 75 0.0 3.2 0.00 0.00 0.00 85 1018.3
20260507080949 14 149 0.0 0.0 0.00 0.00 0.00 85 1018.5
20260507080449 14 149 0.0 0.0 0.00 0.00 0.00 86 1018.5
20260507075949 14 149 0.0 0.0 0.00 0.00 0.00 85 1018.3
20260507075449 14 149 0.0 1.6 0.00 0.00 0.00 85 1018.3
20260507074949 14 133 0.0 0.0 0.00 0.00 0.00 85 1018.3
20260507074449 14 133 0.0 0.0 0.00 0.00 0.00 85 1018.3
20260507073949 14 133 0.0 0.0 0.00 0.00 0.00 84 1018.2
20260507073449 14 133 0.0 0.0 0.00 0.00 0.00 84 1018.2
20260507072949 14 133 0.0 0.0 0.00 0.00 0.00 84 1018.2
20260507072449 14 111 0.0 3.2 0.00 0.00 0.00 83 1018.2
20260507071949 15 168 0.0 1.6 0.00 0.00 0.00 82 1018.3
20260507071449 15 45 0.0 0.0 0.00 0.00 0.00 83 1018.3
20260507070949 15 45 0.0 0.0 0.00 0.00 0.00 83 1018.3
20260507070449 15 45 0.0 0.0 0.00 0.00 0.00 82 1018.6
20260507065949 15 45 0.0 0.0 0.00 0.00 0.00 82 1018.6
20260507065449 15 45 0.0 0.0 0.00 0.00 0.00 82 1018.6
20260507064949 15 45 0.0 0.0 0.00 0.00 0.00 82 1018.7
20260507064449 15 45 0.0 0.0 0.00 0.00 0.00 82 1018.7
20260507063949 15 45 0.0 0.0 0.00 0.00 0.00 82 1018.8
20260507063449 15 45 0.0 0.0 0.00 0.00 0.00 82 1018.9
20260507062949 15 45 0.0 0.0 0.00 0.00 0.00 81 1018.9
20260507062449 15 45 0.0 0.0 0.00 0.00 0.00 81 1018.8
20260507061949 15 45 0.0 0.0 0.00 0.00 0.00 81 1018.8
20260507061449 15 45 0.0 0.0 0.00 0.00 0.00 81 1018.8
20260507060949 15 54 0.0 0.0 0.00 0.00 0.00 81 1018.9
20260507060449 15 74 0.0 0.0 0.00 0.00 0.00 82 1018.9
20260507055949 15 74 0.0 0.0 0.00 0.00 0.00 82 1018.9
20260507055449 15 74 0.0 0.0 0.00 0.00 0.00 81 1018.9
20260507054949 15 74 0.0 0.0 0.00 0.00 0.00 81 1018.8
20260507054449 15 74 0.0 0.0 0.00 0.00 0.00 81 1018.7
20260507053949 15 74 0.0 0.0 0.00 0.00 0.00 81 1018.6
20260507053449 15 74 0.0 0.0 0.00 0.00 0.00 81 1018.6
20260507052949 15 2 0.0 0.0 0.00 0.00 0.00 81 1018.5
20260507052449 15 2 0.0 1.6 0.00 0.00 0.00 82 1018.3
20260507051949 15 12 1.6 1.6 0.00 0.00 0.00 81 1018.3
20260507051449 15 56 0.0 1.6 0.00 0.00 0.00 81 1018.1
20260507050949 15 63 1.6 3.2 0.00 0.00 0.00 81 1018.2
20260507050449 15 139 1.6 3.2 0.00 0.00 0.00 80 1018.1
20260507045949 16 232 0.0 0.0 0.00 0.00 0.00 80 1018.2
20260507045449 16 243 0.0 3.2 0.00 0.00 0.00 81 1018.1
20260507044949 16 291 0.0 0.0 0.00 0.00 0.00 81 1018.0
20260507044449 16 291 0.0 1.6 0.00 0.00 0.00 82 1018.1
20260507043949 16 299 1.6 3.2 0.00 0.00 0.00 82 1018.1
20260507043449 16 288 0.0 1.6 0.00 0.00 0.00 81 1018.1
20260507042949 16 240 1.6 3.2 0.00 0.00 0.00 81 1018.1
20260507042449 16 232 3.2 3.2 0.00 0.00 0.00 81 1018.2
20260507041949 16 230 0.0 0.0 0.00 0.00 0.00 81 1018.1
20260507041449 16 244 0.0 0.0 0.00 0.00 0.00 81 1018.0
20260507040949 16 244 0.0 0.0 0.00 0.00 0.00 81 1018.0
20260507040449 16 277 0.0 1.6 0.00 0.00 0.00 82 1018.0
20260507035949 16 286 1.6 3.2 0.00 0.00 0.00 81 1017.9
20260507035449 16 258 1.6 3.2 0.00 0.00 0.00 81 1017.8
20260507034949 16 275 0.0 3.2 0.00 0.00 0.00 81 1017.8
20260507034449 16 288 3.2 3.2 0.00 0.00 0.00 81 1017.7
20260507033949 16 217 0.0 3.2 0.00 0.00 0.00 80 1017.6
20260507033449 16 324 0.0 3.2 0.00 0.00 0.00 81 1017.6
20260507032949 16 281 1.6 4.8 0.00 0.00 0.00 80 1017.6
20260507032449 16 257 1.6 3.2 0.00 0.00 0.00 79 1017.6
20260507031949 16 284 0.0 6.4 0.00 0.00 0.00 80 1017.5
20260507031449 16 302 1.6 4.8 0.00 0.00 0.00 79 1017.5
20260507030949 16 195 0.0 8.0 0.00 0.00 0.00 78 1017.3
20260507030449 16 284 3.2 11.3 0.00 0.00 0.00 77 1017.3
20260507025949 16 274 6.4 9.7 0.00 0.00 0.00 76 1014.6
20260507025449 16 239 6.4 9.7 0.00 0.00 0.00 75 1017.0
20260507024949 17 260 3.2 6.4 0.00 0.00 0.00 74 1015.8
20260507024449 17 262 0.0 8.0 0.00 0.00 0.00 73 1016.8
20260507023949 17 227 1.6 8.0 0.00 0.00 0.00 72 1016.8
20260507023449 17 244 4.8 9.7 0.00 0.00 0.00 72 1016.7
20260507022949 17 232 8.0 11.3 0.00 0.00 0.00 71 1016.6
20260507022449 17 244 3.2 11.3 0.00 0.00 0.00 71 1016.6
20260507021949 18 262 4.8 9.7 0.00 0.00 0.00 69 1016.5
20260507021449 17 257 4.8 9.7 0.00 0.00 0.00 69 1016.4
20260507020949 18 237 8.0 11.3 0.00 0.00 0.00 69 1016.4
20260507020449 18 241 8.0 12.9 0.00 0.00 0.00 68 1016.3
20260507015949 18 260 4.8 12.9 0.00 0.00 0.00 69 1016.3
20260507015449 18 209 8.0 14.5 0.00 0.00 0.00 68 1015.1
20260507014949 18 240 12.9 14.5 0.00 0.00 0.00 67 1015.1
20260507014449 18 250 4.8 12.9 0.00 0.00 0.00 67 1012.9
20260507013949 18 236 9.7 14.5 0.00 0.00 0.00 67 1016.2
20260507013449 18 217 8.0 16.1 0.00 0.00 0.00 66 1015.0
20260507012949 18 201 11.3 14.5 0.00 0.00 0.00 65 1014.9
20260507012450 18 254 11.3 14.5 0.00 0.00 0.00 65 1014.9
20260507011949 18 251 6.4 14.5 0.00 0.00 0.00 64 1013.6
20260507011449 20 260 9.7 12.9 0.00 0.00 0.00 63 1016.0
20260507010949 20 240 3.2 16.1 0.00 0.00 0.00 63 1016.1
20260507010449 19 291 11.3 14.5 0.00 0.00 0.00 64 1016.0
20260507005949 19 240 12.9 16.1 0.00 0.00 0.00 64 1016.0
20260507005542 19 177 6.4 14.5 0.00 0.00 0.00 63 1016.0
20260507005449 19 177 6.4 14.5 0.00 0.00 0.00 63 1016.0
20260507004949 20 253 8.0 17.7 0.00 0.00 0.00 63 1016.1
20260507004449 20 206 9.7 17.7 0.00 0.00 0.00 63 1016.0
20260507003949 20 258 4.8 16.1 0.00 0.00 0.00 62 1016.0
20260507003449 20 265 8.0 22.5 0.00 0.00 0.00 62 1016.0
20260507002949 20 248 17.7 20.9 0.00 0.00 0.00 61 1016.0
20260507002449 20 208 14.5 19.3 0.00 0.00 0.00 60 1016.0
20260507001949 20 237 8.0 16.1 0.00 0.00 0.00 58 1016.0
20260507001449 20 300 4.8 16.1 0.00 0.00 0.00 57 1016.0
20260507000949 21 241 11.3 17.7 0.00 0.00 0.00 56 1016.0
20260507000450 21 253 9.7 14.5 0.00 0.00 0.00 55 1016.0
20260506235949 20 265 8.0 17.7 0.00 0.00 0.00 55 1016.0
20260506235449 21 306 9.7 17.7 0.00 0.00 0.00 54 1016.1
20260506234949 20 271 8.0 16.1 0.00 0.00 0.00 53 1016.1
20260506234449 20 313 1.6 22.5 0.00 0.00 0.00 53 1016.1
20260506233949 21 267 8.0 16.1 0.00 0.00 0.00 52 1016.1
20260506233449 21 262 14.5 22.5 0.00 0.00 0.00 52 1016.1
20260506232949 21 277 9.7 17.7 0.00 0.00 0.00 51 1016.2
20260506232449 21 281 8.0 17.7 0.00 0.00 0.00 50 1016.3
20260506231949 21 281 6.4 14.5 0.00 0.00 0.00 51 1016.3
20260506231449 21 240 9.7 16.1 0.00 0.00 0.00 51 1016.4
20260506230949 21 286 6.4 17.7 0.00 0.00 0.00 51 1015.4
20260506230449 21 239 9.7 14.5 0.00 0.00 0.00 52 1016.5
20260506225949 21 279 12.9 17.7 0.00 0.00 0.00 52 1016.7
20260506225449 21 302 8.0 16.1 0.00 0.00 0.00 52 1016.7
20260506224949 21 230 12.9 16.1 0.00 0.00 0.00 50 1016.8
20260506224449 21 147 0.0 16.1 0.00 0.00 0.00 52 1016.9
20260506223949 21 226 8.0 16.1 0.00 0.00 0.00 53 1017.0
20260506223449 21 246 12.9 14.5 0.00 0.00 0.00 53 1017.1
20260506222949 21 244 12.9 19.3 0.00 0.00 0.00 53 1017.1
20260506222449 21 272 8.0 17.7 0.00 0.00 0.00 54 1017.3
20260506221949 21 288 6.4 16.1 0.00 0.00 0.00 54 1017.3
20260506221449 21 240 4.8 16.1 0.00 0.00 0.00 55 1017.4
20260506220949 21 255 12.9 20.9 0.00 0.00 0.00 55 1017.5
20260506220449 21 264 9.7 19.3 0.00 0.00 0.00 56 1017.5
20260506215949 20 250 9.7 17.7 0.00 0.00 0.00 56 1017.6
20260506215449 20 272 11.3 22.5 0.00 0.00 0.00 57 1017.7
20260506214949 20 188 8.0 19.3 0.00 0.00 0.00 57 1017.7
20260506214449 21 195 3.2 19.3 0.00 0.00 0.00 58 1017.7
20260506213949 20 261 8.0 20.9 0.00 0.00 0.00 58 1017.8
20260506213449 20 244 12.9 19.3 0.00 0.00 0.00 58 1017.8
20260506212949 21 225 11.3 22.5 0.00 0.00 0.00 57 1018.0
20260506212449 20 239 3.2 16.1 0.00 0.00 0.00 58 1018.0
20260506211949 21 267 0.0 16.1 0.00 0.00 0.00 59 1018.1
20260506211450 20 262 6.4 19.3 0.00 0.00 0.00 58 1018.2
20260506210949 20 210 8.0 22.5 0.00 0.00 0.00 59 1018.2
20260506210449 20 240 3.2 20.9 0.00 0.00 0.00 59 1018.3
20260506205950 21 241 12.9 16.1 0.00 0.00 0.00 58 1018.3
20260506205450 21 284 12.9 19.3 0.00 0.00 0.00 58 1018.3
20260506204949 21 305 12.9 16.1 0.00 0.00 0.00 59 1018.3
20260506204450 20 243 4.8 16.1 0.00 0.00 0.00 58 1018.3
20260506203950 20 275 1.6 12.9 0.00 0.00 0.00 59 1018.5
20260506203450 20 272 4.8 20.9 0.00 0.00 0.00 60 1018.6
20260506202950 20 229 11.3 17.7 0.00 0.00 0.00 60 1018.6
20260506202450 20 210 11.3 17.7 0.00 0.00 0.00 59 1018.6
20260506201950 21 199 3.2 16.1 0.00 0.00 0.00 59 1017.3
20260506201450 20 196 8.0 22.5 0.00 0.00 0.00 59 1017.4
20260506200950 20 219 11.3 20.9 0.00 0.00 0.00 59 1018.8
20260506200450 20 258 14.5 14.5 0.00 0.00 0.00 59 1019.0
20260506195950 20 239 4.8 16.1 0.00 0.00 0.00 60 1019.0
20260506195450 20 289 11.3 14.5 0.00 0.00 0.00 59 1019.1
20260506194950 20 254 3.2 9.7 0.00 0.00 0.00 59 1018.0
20260506194450 20 225 4.8 9.7 0.00 0.00 0.00 59 1017.8
20260506193950 20 330 3.2 12.9 0.00 0.00 0.00 59 1019.4
20260506193450 20 213 0.0 14.5 0.00 0.00 0.00 61 1019.4
20260506192950 20 255 11.3 14.5 0.00 0.00 0.00 61 1019.5
20260506192450 20 277 12.9 16.1 0.00 0.00 0.00 62 1019.5
20260506191950 20 282 12.9 19.3 0.00 0.00 0.00 61 1019.6
20260506191450 20 241 1.6 14.5 0.00 0.00 0.00 58 1019.7
20260506190950 20 312 4.8 17.7 0.00 0.00 0.00 57 1018.5
20260506190450 20 230 8.0 19.3 0.00 0.00 0.00 58 1018.8
20260506185950 20 167 0.0 12.9 0.00 0.00 0.00 56 1017.1
20260506185450 20 300 9.7 14.5 0.00 0.00 0.00 55 1019.9
20260506184950 20 255 9.7 14.5 0.00 0.00 0.00 55 1020.0
20260506184450 20 261 8.0 17.7 0.00 0.00 0.00 54 1020.0
20260506183950 20 326 4.8 12.9 0.00 0.00 0.00 55 1020.0
20260506183450 19 289 4.8 11.3 0.00 0.00 0.00 56 1020.1
20260506182950 19 241 11.3 12.9 0.00 0.00 0.00 55 1020.2
20260506182450 18 282 6.4 16.1 0.00 0.00 0.00 56 1020.3
20260506181950 18 236 16.1 16.1 0.00 0.00 0.00 55 1020.3
20260506181450 18 232 1.6 11.3 0.00 0.00 0.00 57 1020.3
20260506180950 18 225 6.4 11.3 0.00 0.00 0.00 58 1019.1
20260506180450 18 251 3.2 9.7 0.00 0.00 0.00 60 1019.2
20260506175950 18 271 4.8 8.0 0.00 0.00 0.00 61 1017.6
20260506175450 17 239 6.4 14.5 0.00 0.00 0.00 60 1019.3
20260506174950 18 244 0.0 12.9 0.00 0.00 0.00 60 1016.7
20260506174450 18 239 0.0 4.8 0.00 0.00 0.00 62 1020.4
20260506173950 18 254 0.0 8.0 0.00 0.00 0.00 62 1020.4
20260506173450 18 343 4.8 8.0 0.00 0.00 0.00 61 1020.4
20260506172950 18 21 0.0 1.6 0.00 0.00 0.00 63 1020.5
20260506172450 18 327 0.0 3.2 0.00 0.00 0.00 61 1020.5
20260506171950 17 90 0.0 11.3 0.00 0.00 0.00 64 1020.5
20260506171450 17 153 4.8 6.4 0.00 0.00 0.00 67 1020.5
20260506170950 17 158 1.6 8.0 0.00 0.00 0.00 67 1020.6
20260506170450 17 129 0.0 8.0 0.00 0.00 0.00 68 1020.7
20260506165950 17 123 6.4 11.3 0.00 0.00 0.00 69 1020.8
20260506165450 17 104 0.0 3.2 0.00 0.00 0.00 70 1020.8
20260506164950 17 164 0.0 9.7 0.00 0.00 0.00 71 1020.8
20260506164450 17 226 0.0 4.8 0.00 0.00 0.00 71 1020.8
20260506163950 16 172 0.0 11.3 0.00 0.00 0.00 72 1020.8
20260506163450 16 174 6.4 8.0 0.00 0.00 0.00 71 1020.9
20260506162950 17 133 0.0 3.2 0.00 0.00 0.00 72 1020.9
20260506162450 16 157 0.0 0.0 0.00 0.00 0.00 72 1021.0
20260506161950 16 157 0.0 6.4 0.00 0.00 0.00 72 1021.0
20260506161450 16 330 0.0 3.2 0.00 0.00 0.00 72 1021.0
20260506160950 16 147 1.6 3.2 0.00 0.00 0.00 73 1021.0
20260506160450 16 340 0.0 0.0 0.00 0.00 0.00 75 1021.0
20260506155950 15 340 0.0 1.6 0.00 0.00 0.00 76 1018.7
20260506155450 15 167 0.0 6.4 0.00 0.00 0.00 76 1020.0
20260506154950 15 248 3.2 6.4 0.00 0.00 0.00 76 1021.0
20260506154450 15 84 0.0 8.0 0.00 0.00 0.00 76 1021.0
20260506153950 15 102 1.6 6.4 0.00 0.00 0.00 75 1021.0
20260506153450 15 101 0.0 4.8 0.00 0.00 0.00 76 1021.0
20260506152950 15 199 0.0 6.4 0.00 0.00 0.00 78 1021.0
20260506152450 15 196 4.8 8.0 0.00 0.00 0.00 78 1021.0
20260506151950 15 180 4.8 6.4 0.00 0.00 0.00 78 1020.9
20260506151450 15 206 1.6 8.0 0.00 0.00 0.00 78 1020.9
20260506150950 15 126 0.0 3.2 0.00 0.00 0.00 79 1020.9
20260506150450 15 95 0.0 6.4 0.00 0.00 0.00 78 1020.9
20260506145950 15 74 0.0 3.2 0.00 0.00 0.00 80 1020.9
20260506145450 15 125 1.6 4.8 0.00 0.00 0.00 80 1021.0
20260506144950 15 135 4.8 4.8 0.00 0.00 0.00 79 1021.0
20260506144450 15 101 0.0 4.8 0.00 0.00 0.00 78 1021.0
20260506143950 15 23 0.0 1.6 0.00 0.00 0.00 78 1021.0
20260506143450 15 99 1.6 1.6 0.00 0.00 0.00 78 1020.8
20260506142950 14 57 0.0 1.6 0.00 0.00 0.00 79 1020.8
20260506142450 14 67 0.0 3.2 0.00 0.00 0.00 80 1020.7
20260506141950 14 47 1.6 4.8 0.00 0.00 0.00 79 1020.7
20260506141450 13 23 0.0 1.6 0.00 0.00 0.00 80 1020.7
20260506140950 13 39 1.6 1.6 0.00 0.00 0.00 81 1020.7
20260506140450 13 52 0.0 1.6 0.00 0.00 0.00 82 1019.4
20260506135950 13 40 1.6 1.6 0.00 0.00 0.00 83 1020.7
20260506135450 12 50 0.0 0.0 0.00 0.00 0.00 85 1020.6
20260506134950 12 50 0.0 0.0 0.00 0.00 0.00 87 1017.5
20260506134450 11 50 0.0 0.0 0.00 0.00 0.00 87 1020.5
20260506133950 11 50 0.0 0.0 0.00 0.00 0.00 88 1020.5
20260506133450 11 50 0.0 0.0 0.00 0.00 0.00 89 1020.4
20260506132950 11 50 0.0 3.2 0.00 0.00 0.00 88 1020.3
20260506132450 11 49 0.0 0.0 0.00 0.00 0.00 88 1020.2
20260506131950 11 49 0.0 0.0 0.00 0.00 0.00 89 1020.1
20260506131450 11 49 0.0 0.0 0.00 0.00 0.00 89 1020.1
20260506130950 11 49 0.0 0.0 0.00 0.00 0.00 89 1020.0
20260506130450 11 23 0.0 0.0 0.00 0.00 0.00 89 1020.0
20260506125950 11 23 0.0 0.0 0.00 0.00 0.00 88 1019.9
20260506125450 11 23 0.0 0.0 0.00 0.00 0.00 88 1019.9
20260506124950 11 23 0.0 0.0 0.00 0.00 0.00 88 1019.9
20260506124450 11 23 0.0 1.6 0.00 0.00 0.00 87 1019.8
20260506123950 11 15 0.0 1.6 0.00 0.00 0.00 88 1019.8
20260506123450 11 40 0.0 1.6 0.00 0.00 0.00 87 1019.7
20260506122950 11 23 0.0 1.6 0.00 0.00 0.00 87 1019.7
20260506122450 11 49 1.6 1.6 0.00 0.00 0.00 87 1019.6
20260506121950 11 45 1.6 3.2 0.00 0.00 0.00 87 1019.6
20260506121450 11 39 1.6 1.6 0.00 0.00 0.00 87 1019.5
20260506120950 11 36 1.6 1.6 0.00 0.00 0.00 87 1019.5
20260506120450 11 59 0.0 1.6 0.00 0.00 0.00 86 1019.5
20260506115950 11 36 0.0 3.2 0.00 0.00 0.00 86 1019.5
20260506115450 11 22 0.0 3.2 0.00 0.00 0.00 86 1019.5
20260506114950 11 52 1.6 3.2 0.00 0.00 0.00 86 1019.5
20260506114450 11 42 1.6 3.2 0.00 0.00 0.00 86 1019.5
20260506113950 11 49 1.6 3.2 0.00 0.00 0.00 86 1019.5
20260506113450 11 46 1.6 4.8 0.00 0.00 0.00 85 1019.6
20260506112950 11 47 1.6 3.2 0.00 0.00 0.00 85 1019.5
20260506112450 11 23 1.6 1.6 0.00 0.00 0.00 85 1019.5
20260506111950 11 26 0.0 3.2 0.00 0.00 0.00 85 1019.4
20260506111450 11 63 3.2 4.8 0.00 0.00 0.00 86 1019.4
20260506110950 11 75 1.6 1.6 0.00 0.00 0.00 86 1019.4
20260506110450 11 19 0.0 0.0 0.00 0.00 0.00 85 1019.4
20260506105950 11 19 0.0 1.6 0.00 0.00 0.00 85 1019.4
20260506105450 11 42 1.6 1.6 0.00 0.03 0.00 86 1019.3
20260506104950 11 59 1.6 1.6 0.00 0.03 0.00 86 1019.3
20260506104450 11 39 0.0 3.2 0.00 0.03 0.00 86 1019.4
20260506103950 11 59 1.6 3.2 0.00 0.03 0.00 86 1019.3
20260506103450 11 63 1.6 4.8 0.00 0.03 0.00 86 1019.3
20260506102950 11 45 0.0 1.6 0.00 0.03 0.00 86 1019.4
20260506102450 11 5 0.0 3.2 0.00 0.03 0.00 86 1019.3